Location: Hokitika
(42.7170°S, 170.9670°E)
Time: 18:45:38
(UTC+13:00)

CZ-2C R/B - Pass Details

Date: 24 January 2019
Orbit: 785 x 870 km, 98.3° (Epoch: 15 October)

Event Time Altitude Azimuth Distance (km) Brightness Sun altitude
Exits shadow 21:47:36 - 40° (NE) 2,707 4.7 -7.0°
Reaches altitude 10° 21:48:16 10° 42° (NE) 2,462 4.5 -7.1°
Maximum altitude 21:53:22 42° 111° (ESE) 1,181 3.2 -7.9°
Drops below altitude 10° 21:58:25 10° 180° (S) 2,437 5.6 -8.6°
Sets 22:00:51 0° 186° (S) 3,364 6.5 -9.0°
